Temperature
4 5 5 5 5 5 4 5 5 6 6 7 7 7 7 8 7 7 6 6 6 5 5 5 4 4 4 4 3 3 3 3 3 3 3 3 3 3 3 2 2 2 2 2
3 4 5 4 5 5 5 5 5 6 6 7 8 8 7 7 7 7 6 6 5 5 4 4 4 4 4 3 3 3 3 3 2 2 2 2 2 2 2 2 2 2 2 2
3 4 4 3 4 4 4 5 5 5 6 6 6 6 6 7 7 6 6 5 5 4 4 4 4 4 3 3 3 2 2 2 2 2 2 2 2 2 2 2 2 2 1 1
2 3 2 5 6 6 5 5 5 5 5 5 5 6 6 6 6 6 5 5 4 4 4 3 3 3 3 2 2 2 2 2 1 1 1 1 1 1 1 1 1 1 1 1
2 2 4 5 5 5 4 4 5 5 5 5 5 5 5 6 5 5 4 4 4 3 3 3 3 2 2 2 2 2 2 1 1 1 1 1 1 1 1 1 1 1 1 0
2 2 3 5 5 5 5 4 5 5 4 4 4 3 3 5 4 4 4 3 3 3 3 2 2 2 2 1 1 1 1 1 1 1 1 1 0 0 0 0 0 0 0 -0
1 2 3 4 4 4 4 4 5 5 5 4 3 4 4 4 4 3 3 3 3 2 2 2 2 1 1 1 1 1 1 1 0 0 0 0 -0 -0 -0 -0 -0 -0 -1 -1
1 2 3 3 3 3 4 5 5 5 5 4 4 4 3 3 3 2 2 2 2 2 2 1 1 1 1 1 1 0 0 0 -0 -0 -0 -0 -1 -1 -1 -1 -1 -1 -1 -1
2 3 4 4 4 5 5 4 4 4 4 4 3 3 2 2 2 2 2 2 2 1 1 1 1 1 0 0 0 -0 -0 -0 -1 -1 -1 -1 -1 -1 -1 -2 -2 -2 -2 -2
2 2 3 4 4 4 4 4 4 3 3 3 2 2 2 2 2 2 2 1 1 1 1 1 0 0 -0 -0 -0 -0 -1 -1 -1 -1 -1 -1 -1 -1 -2 -2 -2 -2 -2 -2
1 2 2 3 4 3 3 3 3 3 2 2 2 1 1 1 1 1 1 1 1 1 0 0 -0 -0 -0 -1 -1 -1 -1 -1 -1 -2 -2 -2 -2 -2 -2 -2 -2 -2 -2 -2
1 2 2 2 3 3 3 2 2 2 2 1 1 1 1 1 1 1 0 0 0 0 -0 -0 -1 -1 -1 -1 -1 -1 -1 -2 -2 -2 -2 -2 -2 -2 -2 -2 -2 -2 -2 -3
3 3 3 3 2 2 2 2 2 1 1 1 1 1 1 0 0 0 0 0 -0 -0 -1 -1 -1 -1 -1 -1 -1 -2 -2 -2 -2 -2 -2 -2 -2 -2 -2 -2 -2 -2 -3 -3
2 2 2 2 1 1 1 1 1 1 1 1 1 1 0 0 -0 -0 -0 -0 -1 -1 -1 -1 -2 -2 -2 -2 -2 -2 -2 -2 -2 -3 -3 -3 -3 -3 -3 -3 -3 -2 -3 -3
2 2 1 1 1 1 0 0 0 0 0 0 0 0 -0 -0 -1 -1 -1 -1 -1 -1 -1 -2 -2 -2 -2 -2 -2 -2 -2 -3 -3 -3 -3 -3 -3 -3 -3 -3 -3 -3 -3 -3
1 1 0 0 -0 -0 -0 -0 -0 -0 -0 -0 -0 -0 -1 -1 -1 -1 -1 -1 -1 -1 -2 -2 -2 -2 -2 -2 -2 -3 -3 -3 -3 -3 -3 -3 -3 -3 -3 -3 -3 -4 -4 -4
-0 -1 -1 -1 -1 -1 -1 -1 -1 -1 -1 -1 -1 -1 -2 -2 -2 -2 -2 -2 -2 -2 -2 -2 -2 -2 -3 -3 -3 -3 -3 -3 -3 -3 -3 -3 -3 -3 -4 -4 -4 -4 -4 -4
-0 -0 -1 -1 -1 -1 -2 -2 -2 -2 -1 -2 -2 -2 -2 -2 -2 -2 -2 -2 -2 -2 -2 -3 -3 -3 -3 -3 -3 -3 -3 -3 -3 -3 -3 -3 -3 -4 -4 -4 -4 -4 -4 -4
-0 -1 -1 -1 -1 -2 -2 -2 -2 -2 -2 -2 -2 -2 -2 -2 -2 -2 -3 -3 -2 -2 -3 -3 -3 -3 -3 -3 -3 -3 -3 -3 -4 -4 -4 -4 -4 -4 -4 -4 -4 -4 -4 -5
-1 -1 -1 -2 -2 -2 -2 -2 -2 -2 -2 -2 -2 -3 -2 -2 -3 -3 -3 -3 -3 -3 -3 -3 -3 -3 -3 -3 -3 -4 -4 -4 -4 -4 -4 -4 -4 -4 -4 -4 -5 -5 -5 -5
-2 -2 -2 -2 -2 -3 -3 -3 -3 -3 -3 -3 -3 -3 -3 -3 -3 -3 -3 -3 -3 -3 -3 -3 -3 -3 -3 -4 -4 -4 -4 -4 -4 -4 -4 -4 -4 -4 -5 -5 -5 -5 -5 -5
-2 -3 -3 -3 -3 -3 -3 -3 -3 -3 -3 -3 -3 -3 -3 -3 -3 -3 -3 -3 -4 -4 -4 -4 -4 -4 -4 -4 -4 -4 -4 -4 -4 -4 -4 -4 -4 -5 -5 -5 -5 -5 -5 -5
-3 -3 -3 -3 -3 -3 -3 -3 -3 -3 -3 -3 -3 -3 -4 -3 -4 -4 -4 -4 -4 -4 -4 -4 -4 -4 -4 -4 -4 -4 -4 -4 -4 -4 -5 -5 -5 -5 -5 -5 -5 -5 -5 -5
-3 -3 -4 -4 -4 -4 -4 -3 -4 -4 -4 -4 -4 -4 -4 -4 -4 -4 -4 -4 -4 -4 -4 -4 -4 -5 -5 -5 -5 -4 -5 -5 -5 -5 -5 -5 -5 -5 -5 -5 -5 -5 -5 -5
-4 -4 -4 -4 -4 -4 -4 -4 -4 -4 -4 -4 -4 -4 -4 -4 -4 -5 -5 -5 -5 -5 -5 -5 -5 -5 -5 -5 -5 -5 -5 -5 -5 -5 -5 -5 -5 -5 -5 -5 -5 -5 -6 -6
-4 -4 -4 -4 -4 -4 -4 -4 -4 -4 -4 -5 -5 -5 -5 -5 -5 -5 -5 -5 -5 -5 -5 -5 -5 -5 -5 -5 -5 -5 -5 -5 -5 -5 -5 -5 -5 -5 -5 -5 -6 -6 -6 -6
-4 -4 -4 -4 -4 -4 -5 -5 -5 -5 -5 -5 -5 -5 -5 -5 -5 -5 -5 -6 -6 -6 -6 -6 -6 -6 -6 -6 -6 -6 -6 -6 -6 -6 -6 -6 -6 -6 -6 -6 -6 -6 -6 -6
Wind_Speed
8 8 7 8 9 10 11 10 9 9 10 10 6 5 4 3 3 4 4 4 4 4 3 3 3 3 3 2 2 2 2 3 3 2 2 2 2 3 3 3 4 4 3 4
7 7 8 11 12 13 14 12 14 13 14 9 6 4 4 4 4 4 4 4 4 4 3 4 4 4 3 3 3 2 3 3 2 2 2 2 3 3 3 3 3 3 3 3
6 4 5 10 12 13 11 11 11 14 12 5 4 5 4 4 4 4 3 3 3 4 4 3 3 4 4 4 3 3 3 2 2 2 2 3 3 3 3 3 3 3 4 4
3 2 8 8 3 7 10 11 11 9 7 6 5 4 4 3 3 3 3 3 3 3 3 3 2 2 3 3 3 3 3 2 2 2 2 2 3 3 3 3 3 3 4 4
3 5 8 6 3 4 6 8 8 9 8 6 3 3 4 2 2 3 2 2 2 2 3 2 3 3 3 3 3 3 3 3 3 3 3 3 3 3 3 2 3 3 3 4
4 4 6 4 2 1 2 6 4 6 7 5 2 3 4 1 2 1 1 1 2 1 2 2 3 4 4 4 4 4 4 3 3 3 3 3 3 3 3 3 3 3 4 4
7 7 7 4 2 3 3 5 2 4 5 4 5 5 2 1 1 1 1 1 2 2 3 3 3 4 4 4 5 4 3 2 3 3 3 3 3 2 2 3 3 3 3 4
6 7 8 4 4 5 5 2 2 2 2 2 3 2 1 1 1 1 1 2 2 2 3 3 3 4 4 5 4 3 2 3 3 3 3 2 2 2 2 3 3 3 3 4
7 7 4 4 4 4 3 3 3 2 2 1 2 2 2 2 2 2 2 2 2 3 2 2 3 4 5 4 3 3 3 3 3 2 2 3 3 3 3 3 3 3 3 3
6 8 6 5 4 4 4 4 3 2 2 2 3 3 3 3 2 2 2 2 2 3 3 3 3 4 4 3 3 3 3 3 2 2 2 3 3 3 3 3 3 3 3 3
8 7 5 6 6 5 5 4 4 3 3 4 4 5 4 4 3 3 2 2 2 3 3 4 3 3 3 4 4 3 3 3 2 2 3 3 3 3 4 4 5 4 3 3
8 6 5 7 5 4 5 5 4 4 4 4 4 5 5 4 3 3 3 2 2 3 3 3 3 3 3 4 4 4 3 3 3 2 2 2 2 3 4 5 5 5 5 5
7 5 6 7 6 5 5 5 5 5 5 5 4 4 4 4 3 2 3 3 3 3 3 3 3 4 4 4 4 4 4 3 3 3 3 3 3 3 3 3 4 5 5 5
6 5 6 6 6 4 4 4 4 4 4 4 4 3 3 3 3 3 3 3 3 3 3 3 3 4 3 4 4 4 4 4 3 3 3 3 3 3 3 3 3 3 3 4
5 5 6 6 5 5 4 3 3 4 4 4 3 3 4 4 4 3 3 2 2 2 3 3 3 4 3 3 4 4 3 3 3 3 3 3 3 3 3 3 3 2 2 2
5 5 5 5 5 5 4 4 4 4 4 3 3 3 3 3 3 2 2 2 3 3 3 3 4 3 3 3 3 3 3 4 3 3 2 2 2 3 3 2 2 2 2 2
4 5 4 5 5 5 4 4 4 4 3 3 3 3 2 2 2 2 2 2 3 3 3 3 3 2 3 3 3 3 2 3 4 2 2 2 3 3 3 2 2 2 2 2
5 6 5 5 5 5 4 4 3 3 3 3 2 2 3 3 3 3 2 1 1 1 2 2 2 2 3 3 3 2 2 2 2 2 2 2 3 2 2 2 2 2 2 2
3 3 3 3 3 3 3 3 2 2 2 2 2 3 3 3 2 2 1 2 2 2 2 1 1 1 2 3 2 2 2 2 2 2 2 3 2 2 2 2 2 2 2 1
2 1 1 1 1 1 2 2 2 1 2 2 2 2 2 2 2 2 2 1 2 2 1 1 1 1 2 2 2 2 2 2 2 2 2 2 2 2 2 2 2 2 2 2
1 1 1 1 1 1 1 1 1 1 1 2 3 2 2 1 1 2 2 0 1 0 0 0 0 1 1 2 2 1 2 2 2 2 2 2 2 2 2 2 2 2 2 1
1 1 1 1 1 2 2 2 2 2 2 2 2 2 2 2 2 1 1 0 1 1 1 0 0 0 1 1 1 1 2 2 2 2 2 2 2 2 2 2 2 2 1 1
1 1 1 1 2 2 2 3 2 2 2 2 2 2 2 1 1 1 0 1 1 2 2 1 1 1 0 1 1 1 1 1 1 1 2 2 2 2 2 2 2 2 1 1
1 1 2 2 3 3 3 3 3 3 3 2 2 2 2 2 1 1 0 1 2 2 1 1 2 1 1 1 1 1 1 1 1 1 1 1 1 1 2 2 1 1 1 1
1 2 2 3 3 2 2 2 3 3 3 2 2 2 2 1 1 1 1 1 2 2 2 2 2 2 1 1 1 0 0 0 0 0 0 0 0 1 1 1 1 1 1 1
1 1 1 1 1 1 1 2 2 1 2 2 2 2 2 2 2 1 1 1 2 2 2 2 2 1 1 1 1 1 1 0 1 0 0 0 0 0 0 1 1 1 1 1
2 1 2 2 2 2 2 2 2 1 1 1 1 1 2 2 2 2 2 2 2 2 2 2 1 1 1 1 1 1 1 1 1 1 1 0 0 0 0 1 1 1 1 1
Wind_Direction
263 273 265 252 238 222 223 229 239 254 257 259 248 250 250 236 212 202 205 201 196 199 199 197 203 204 186 180 179 173 185 201 215 220 227 232 242 240 237 238 237 228 223 228
273 264 262 264 249 237 236 237 245 259 266 257 255 256 259 252 240 231 226 211 205 203 202 203 205 202 189 187 187 178 193 211 215 218 237 241 244 246 242 246 246 239 234 233
261 262 289 263 235 225 229 226 227 243 250 264 273 264 254 249 239 230 233 228 217 215 212 212 208 197 193 189 177 178 188 201 208 214 230 239 242 244 240 239 242 243 244 242
254 258 246 245 205 205 222 237 234 244 255 255 254 262 262 252 230 240 228 227 223 207 202 206 194 180 175 159 168 181 188 201 208 215 230 238 242 245 252 242 238 241 244 245
222 246 266 264 235 194 210 252 232 237 252 259 275 299 278 257 193 198 204 205 210 202 194 197 190 178 163 168 180 190 203 211 212 213 227 237 247 252 257 252 248 252 252 251
228 242 251 252 190 176 173 259 229 218 238 239 209 254 257 172 128 149 159 188 213 208 186 195 198 170 170 189 192 207 215 215 215 217 222 231 245 257 261 259 256 260 265 258
231 244 262 243 176 109 193 252 252 220 230 221 220 225 214 141 169 190 215 219 216 204 196 205 194 170 186 199 208 210 205 211 220 224 227 232 244 253 261 263 261 257 266 268
209 229 248 191 153 194 231 285 308 276 258 231 225 225 213 234 239 225 237 239 217 201 209 204 178 174 200 213 204 184 193 212 224 226 226 223 230 248 246 249 254 254 264 277
208 226 248 194 217 246 292 292 304 312 307 225 223 234 235 250 246 233 226 230 212 197 204 199 181 181 209 214 177 178 196 214 223 227 228 219 219 231 240 243 248 250 252 265
250 256 259 250 255 269 271 267 282 275 264 244 232 230 237 242 239 237 241 233 213 192 205 221 200 196 208 194 176 183 204 218 215 223 235 231 228 225 233 239 245 249 250 260
254 268 281 262 255 260 269 267 263 261 248 241 237 241 241 245 244 237 240 234 208 200 215 226 208 203 196 185 181 194 209 217 220 226 234 236 238 237 238 239 241 246 246 244
243 246 241 262 262 261 261 264 258 249 252 243 235 241 241 241 238 230 230 221 210 210 216 227 211 208 200 188 188 195 211 216 221 223 231 234 245 275 266 253 261 259 257 257
250 267 265 272 277 271 260 263 261 250 245 250 249 234 233 235 228 213 217 218 214 216 222 224 212 214 205 191 192 199 213 220 222 223 229 235 241 244 269 286 273 267 263 266
258 268 272 269 271 276 271 271 271 264 255 247 244 230 220 222 219 214 225 223 209 208 219 219 215 222 207 189 190 203 214 225 225 224 226 232 236 237 239 251 274 284 277 270
263 262 260 274 279 276 267 262 263 262 258 259 242 220 209 212 221 225 223 207 197 211 224 223 224 227 202 189 194 207 211 215 220 225 229 233 233 233 238 243 252 270 295 292
275 275 262 262 265 269 268 258 251 252 248 244 233 220 210 207 218 221 216 193 196 225 233 232 236 228 195 189 196 209 215 221 221 223 229 231 229 230 233 235 247 251 256 271
255 260 258 263 267 270 267 263 251 246 238 230 221 204 196 204 217 222 220 209 208 229 234 235 242 224 196 192 196 210 213 217 217 221 222 229 231 229 224 226 240 245 253 255
236 243 246 246 252 261 267 264 254 239 232 224 202 188 194 203 214 221 216 188 200 268 261 238 226 207 198 194 195 203 204 206 210 211 215 224 231 222 218 222 231 237 254 257
262 256 262 260 255 249 248 246 236 228 217 195 186 197 204 205 200 196 177 176 207 246 266 250 233 189 191 195 192 195 198 202 211 216 213 225 230 218 213 219 224 227 225 228
300 305 310 306 305 240 225 218 202 201 194 171 162 166 174 181 173 166 162 201 230 236 249 254 224 188 188 196 196 192 197 201 204 208 209 214 217 212 208 214 212 214 221 222
328 339 345 348 8 46 114 141 141 144 145 148 158 168 167 156 144 148 152 202 302 314 315 269 137 197 195 193 193 187 193 198 200 203 210 214 208 204 207 211 213 215 224 236
345 360 11 54 77 64 51 69 102 110 103 105 117 127 128 121 110 95 84 195 296 346 11 359 320 235 227 191 179 182 190 194 196 201 211 212 202 204 211 209 213 218 219 232
10 37 55 76 98 93 62 57 77 92 97 105 120 135 140 131 114 126 45 4 360 5 11 347 345 345 334 131 160 178 191 196 204 214 220 220 206 202 207 208 212 212 212 220
39 53 63 75 86 85 71 51 57 67 73 67 71 87 104 95 49 38 83 21 12 15 15 344 353 9 58 76 119 154 184 200 211 217 223 225 207 193 200 207 212 217 218 212
57 66 81 95 94 94 91 81 70 66 70 64 54 46 46 59 89 54 39 29 24 24 17 0 7 28 50 65 87 99 132 191 179 180 208 213 203 195 202 210 211 219 232 232
57 77 86 91 112 119 110 96 80 66 66 57 42 44 51 55 65 55 39 18 14 23 20 9 10 29 42 50 54 55 51 39 43 38 15 5 75 224 222 219 216 226 228 231
68 70 70 64 59 74 90 94 92 74 67 76 35 30 43 42 42 35 24 16 17 21 18 13 17 29 39 48 52 51 49 51 51 38 28 25 6 315 264 254 247 240 233 227
Height
1443 1440 1441 1441 1441 1442 1445 1443 1443 1433 1430 1425 1425 1426 1426 1427 1428 1429 1430 1430 1431 1432 1433 1433 1434 1434 1435 1435 1436 1436 1437 1437 1437 1438 1438 1439 1439 1439 1440 1440 1441 1441 1441 1441
1444 1439 1439 1437 1434 1435 1435 1435 1433 1430 1426 1420 1421 1422 1423 1424 1425 1425 1426 1427 1428 1429 1429 1430 1430 1431 1431 1432 1432 1433 1433 1433 1434 1434 1434 1435 1435 1435 1436 1436 1436 1437 1437 1437
1442 1438 1439 1437 1426 1427 1427 1424 1426 1426 1420 1417 1419 1420 1420 1420 1421 1422 1423 1424 1424 1425 1426 1426 1427 1427 1427 1428 1429 1429 1429 1430 1430 1430 1431 1431 1431 1431 1432 1432 1432 1432 1432 1433
1443 1442 1443 1420 1414 1415 1418 1418 1418 1416 1415 1415 1416 1416 1417 1417 1417 1418 1419 1420 1421 1421 1422 1423 1423 1424 1424 1425 1425 1426 1426 1426 1427 1427 1427 1427 1427 1427 1428 1428 1428 1428 1428 1428
1442 1438 1427 1415 1412 1413 1416 1414 1411 1412 1412 1412 1413 1414 1413 1413 1414 1415 1415 1416 1417 1418 1418 1419 1419 1420 1420 1421 1422 1422 1422 1423 1423 1423 1423 1423 1423 1423 1424 1424 1423 1424 1424 1423
1438 1436 1429 1413 1410 1408 1412 1413 1406 1407 1408 1409 1411 1414 1412 1411 1411 1412 1412 1413 1413 1414 1414 1415 1416 1416 1416 1417 1418 1418 1419 1419 1420 1420 1420 1420 1420 1420 1420 1420 1419 1419 1419 1419
1436 1433 1420 1410 1408 1409 1417 1411 1403 1402 1403 1405 1407 1408 1408 1408 1408 1408 1409 1409 1410 1410 1410 1411 1412 1412 1412 1413 1414 1415 1415 1416 1416 1416 1416 1416 1416 1416 1416 1416 1416 1415 1415 1415
1430 1429 1419 1407 1408 1410 1407 1402 1401 1401 1401 1402 1403 1403 1404 1404 1404 1405 1405 1406 1406 1406 1407 1407 1408 1408 1409 1409 1410 1411 1412 1412 1412 1413 1413 1413 1413 1413 1413 1413 1412 1412 1411 1411
1417 1413 1405 1403 1402 1401 1401 1401 1400 1399 1400 1400 1400 1401 1401 1401 1401 1402 1402 1402 1403 1403 1403 1404 1404 1405 1405 1406 1407 1407 1408 1408 1408 1409 1409 1409 1409 1409 1409 1409 1409 1408 1408 1407
1409 1403 1401 1400 1399 1399 1399 1399 1398 1398 1398 1398 1398 1398 1398 1398 1398 1398 1398 1399 1399 1399 1399 1400 1401 1401 1401 1402 1403 1403 1404 1404 1405 1405 1405 1405 1406 1406 1406 1405 1405 1405 1404 1404
1405 1400 1398 1396 1396 1396 1396 1395 1395 1395 1395 1395 1395 1395 1395 1395 1395 1395 1395 1395 1396 1396 1396 1396 1397 1397 1398 1399 1399 1400 1400 1401 1401 1401 1402 1402 1402 1402 1402 1402 1402 1402 1401 1401
1398 1394 1395 1392 1392 1393 1392 1391 1391 1391 1391 1391 1391 1391 1391 1390 1391 1391 1391 1392 1392 1392 1392 1392 1393 1393 1394 1395 1396 1396 1396 1397 1397 1398 1398 1399 1398 1399 1399 1399 1399 1399 1398 1398
1391 1390 1390 1388 1388 1388 1388 1387 1387 1387 1387 1387 1387 1387 1387 1387 1387 1387 1388 1388 1388 1388 1388 1389 1389 1390 1390 1391 1392 1392 1393 1393 1394 1395 1395 1395 1395 1395 1395 1395 1395 1395 1395 1394
1387 1386 1385 1384 1384 1384 1383 1383 1383 1382 1382 1382 1382 1382 1383 1383 1383 1384 1384 1384 1385 1385 1385 1385 1385 1386 1387 1387 1388 1388 1389 1390 1391 1391 1391 1392 1392 1392 1392 1391 1391 1390 1391 1390
1382 1382 1381 1380 1379 1379 1379 1379 1378 1378 1378 1378 1378 1378 1378 1379 1379 1380 1381 1381 1381 1382 1382 1382 1382 1383 1383 1384 1384 1385 1386 1386 1387 1388 1388 1388 1388 1389 1389 1388 1388 1387 1387 1387
1377 1377 1376 1375 1375 1374 1375 1374 1374 1374 1374 1374 1374 1374 1375 1375 1376 1376 1377 1378 1378 1378 1378 1379 1379 1379 1380 1380 1381 1382 1382 1383 1384 1384 1384 1385 1385 1385 1385 1385 1385 1384 1384 1383
1374 1372 1371 1371 1371 1370 1370 1370 1370 1370 1370 1370 1370 1371 1371 1371 1372 1372 1373 1374 1375 1375 1375 1375 1375 1376 1376 1377 1377 1378 1379 1379 1380 1381 1381 1381 1381 1381 1382 1382 1381 1381 1381 1381
1369 1369 1368 1367 1367 1366 1366 1366 1367 1367 1367 1367 1367 1367 1368 1368 1368 1369 1370 1371 1372 1372 1372 1372 1372 1373 1373 1374 1374 1375 1376 1376 1377 1377 1377 1378 1378 1378 1378 1379 1378 1378 1378 1378
1365 1365 1364 1364 1364 1363 1363 1363 1363 1363 1363 1364 1364 1364 1365 1366 1366 1367 1367 1368 1368 1369 1369 1370 1370 1370 1370 1371 1372 1372 1373 1373 1373 1374 1374 1374 1375 1375 1375 1376 1376 1376 1375 1376
1362 1362 1361 1361 1360 1360 1360 1360 1360 1360 1361 1361 1361 1362 1362 1363 1364 1365 1365 1366 1366 1367 1367 1367 1367 1367 1368 1368 1369 1369 1370 1370 1370 1370 1371 1371 1371 1372 1372 1373 1373 1373 1373 1373
1360 1359 1359 1358 1358 1358 1358 1358 1358 1358 1359 1360 1360 1360 1361 1361 1362 1363 1363 1364 1365 1365 1365 1365 1365 1365 1365 1366 1366 1366 1366 1367 1367 1367 1368 1368 1368 1369 1369 1370 1370 1370 1371 1371
1358 1357 1357 1356 1356 1356 1357 1357 1357 1358 1358 1359 1359 1359 1360 1360 1361 1362 1362 1363 1363 1363 1363 1363 1363 1363 1363 1363 1363 1363 1364 1364 1364 1365 1365 1365 1366 1366 1366 1367 1367 1368 1368 1368
1356 1356 1355 1355 1356 1356 1356 1357 1357 1357 1358 1358 1358 1359 1359 1359 1360 1360 1361 1361 1361 1362 1362 1361 1361 1361 1361 1361 1361 1361 1361 1362 1362 1362 1363 1363 1363 1364 1364 1364 1365 1365 1365 1366
1355 1355 1355 1355 1355 1355 1356 1356 1357 1357 1358 1358 1358 1359 1359 1359 1359 1359 1360 1360 1360 1360 1360 1360 1360 1359 1359 1359 1359 1359 1360 1360 1360 1360 1361 1361 1361 1361 1362 1362 1362 1363 1363 1363
1355 1355 1355 1355 1355 1356 1356 1356 1357 1357 1357 1358 1358 1358 1358 1358 1358 1358 1358 1358 1358 1358 1358 1358 1358 1358 1357 1357 1358 1358 1358 1358 1359 1359 1359 1359 1359 1359 1360 1360 1360 1360 1361 1361
1355 1355 1355 1356 1356 1356 1357 1357 1357 1357 1357 1357 1357 1358 1358 1358 1358 1357 1357 1357 1357 1357 1357 1356 1356 1356 1356 1356 1356 1357 1357 1357 1357 1357 1357 1357 1357 1358 1358 1358 1358 1358 1359 1359
1355 1356 1356 1356 1357 1357 1358 1358 1358 1358 1358 1358 1357 1357 1357 1357 1357 1357 1356 1356 1356 1356 1355 1355 1355 1355 1354 1355 1355 1355 1356 1356 1356 1356 1355 1355 1356 1356 1356 1356 1356 1356 1356 1357